This is the latest recevied weather packets stored in our database for station/object ON7XX-13. If no packets are shown the sender has not sent any weather packets the latest 10 day(s).
| Time | Temp. | Humidity | Pressure | Rain* | Wind** | Luminosity | Snow |
|---|---|---|---|---|---|---|---|
| 1777815943 | 18.33° C | 91% | 1011.4 hPa | - | - | - | - |
| 1777815328 | 18.33° C | 89% | 1011.6 hPa | - | - | - | - |
| 1777814714 | 18.33° C | 88% | 1011.6 hPa | - | - | - | - |
| 1777814100 | 18.89° C | 86% | 1011.7 hPa | - | - | - | - |
| 1777813486 | 18.33° C | 85% | 1011.6 hPa | - | - | - | - |
| 1777812872 | 18.89° C | 84% | 1011.7 hPa | - | - | - | - |
| 1777812257 | 18.89° C | 84% | 1011.8 hPa | - | - | - | - |
| 1777811644 | 18.89° C | 87% | 1011.7 hPa | - | - | - | - |
| 1777811029 | 18.89° C | 91% | 1011.5 hPa | - | - | - | - |
| 1777810415 | 19.44° C | 83% | 1011.1 hPa | - | - | - | - |
| 1777809801 | 20° C | 83% | 1011.3 hPa | - | - | - | - |
| 1777809187 | 20° C | 82% | 1011.3 hPa | - | - | - | - |
| 1777807344 | 20° C | 84% | 1011.4 hPa | - | - | - | - |
| 1777806116 | 20° C | 87% | 1011.6 hPa | - | - | - | - |
| 1777805501 | 19.44° C | 90% | 1011.6 hPa | - | - | - | - |
| 1777804887 | 18.89° C | 90% | 1011.7 hPa | - | - | - | - |
| 1777804273 | 18.89° C | 91% | 1011.7 hPa | - | - | - | - |
| 1777803658 | 18.33° C | 90% | 1011.6 hPa | - | - | - | - |
| 1777803044 | 18.33° C | 91% | 1011.6 hPa | - | - | - | - |
| 1777802430 | 18.33° C | 92% | 1011.7 hPa | - | - | - | - |
| 1777801816 | 18.33° C | 92% | 1011.7 hPa | - | - | - | - |
| 1777801201 | 18.33° C | 95% | 1011.7 hPa | - | - | - | - |
| 1777800588 | 17.78° C | 96% | 1011.7 hPa | - | - | - | - |
| 1777799973 | 18.33° C | 94% | 1011.6 hPa | - | - | - | - |
| 1777799359 | 17.78° C | 94% | 1011.7 hPa | - | - | - | - |
* Rain since midnight (hover to see other rain measurements)
** Current wind speed in m/s (hover to see current wind gust speed)